EW6566 Weather Reports


Display with metric or nautical units.
time (UTC)temp
F
wind
direction
speed
MPH
gust
MPH
rain 1hr
in
rain 24hr
in
rain mn
in
humidity
%
barometer
mb
20260502233519 56 0.0 0.0 0.00 0.00 0.00 99 1013.0
20260502232536 56 0.0 0.0 0.00 0.00 0.00 98 1013.2
20260502231520 56 0.0 0.0 0.00 0.00 0.00 98 1013.1
20260502230559 56 0.0 0.0 0.00 0.00 0.00 97 1012.8
20260502225520 56 0.0 0.0 0.00 0.00 0.00 97 1013.2
20260502224540 56 0.0 0.0 0.00 0.00 0.00 96 1013.6
20260502223520 57 0.0 0.0 0.00 0.00 0.00 95 1014.3
20260502222519 57 0.0 0.0 0.00 0.00 0.00 93 1014.8
20260502221520 57 0.0 0.0 0.00 0.00 0.00 90 1015.0
20260502220519 59 0.0 0.0 0.00 0.00 0.00 84 1015.4
20260502215520 61 0.0 0.0 0.00 0.00 0.00 65 1015.2
20260502214540 61 0.0 0.0 0.00 0.00 0.00 62 1014.3
20260502213520 61 0.0 0.0 0.00 0.00 0.00 61 1013.8
20260502212520 61 0.0 0.0 0.00 0.00 0.00 61 1013.8
20260502211548 61 0.0 0.0 0.00 0.00 0.00 60 1013.9
20260502210519 61 0.0 0.0 0.00 0.00 0.00 57 1014.0
20260502205520 62 0.0 0.0 0.00 0.00 0.00 55 1013.5
20260502204519 62 0.0 0.0 0.00 0.00 0.00 55 1013.8
20260502203533 62 0.0 0.0 0.00 0.00 0.00 56 1013.9
20260502202519 62 0.0 0.0 0.00 0.00 0.00 57 1014.0
20260502201527 62 0.0 0.0 0.00 0.00 0.00 56 1014.2
20260502200600 63 0.0 0.0 0.00 0.00 0.00 57 1014.2
20260502195536 63 0.0 0.0 0.00 0.00 0.00 56 1014.4
20260502194520 63 0.0 0.0 0.00 0.00 0.00 56 1014.6
20260502193519 64 0.0 0.0 0.00 0.00 0.00 55 1014.7
20260502192539 64 0.0 0.0 0.00 0.00 0.00 53 1014.6
20260502191519 65 0.0 0.0 0.00 0.00 0.00 52 1014.5
20260502190541 65 0.0 0.0 0.00 0.00 0.00 50 1014.5
20260502185520 66 0.0 0.0 0.00 0.00 0.00 49 1014.6
20260502184539 66 0.0 0.0 0.00 0.00 0.00 48 1014.5
20260502183519 67 0.0 0.0 0.00 0.00 0.00 50 1014.5
20260502182557 67 0.0 0.0 0.00 0.00 0.00 47 1014.5
20260502181519 68 0.0 0.0 0.00 0.00 0.00 48 1014.4
20260502180520 69 0.0 0.0 0.00 0.00 0.00 46 1014.4
20260502170519 72 0.0 0.0 0.00 0.00 0.00 49 1014.7
20260502163525 73 0.0 0.0 0.00 0.00 0.00 48 1015.3
20260502162519 73 0.0 0.0 0.00 0.00 0.00 48 1015.4
20260502161519 73 0.0 0.0 0.00 0.00 0.00 47 1015.4
20260502160520 74 0.0 0.0 0.00 0.00 0.00 47 1015.5
20260502151530 78 0.0 0.0 0.00 0.00 0.00 41 1015.8
20260502150539 78 0.0 0.0 0.00 0.00 0.00 39 1015.9
20260502130519 73 0.0 1.0 0.00 0.00 0.00 54 1017.1
20260502123519 72 0.0 0.0 0.00 0.00 0.00 56 1017.4
20260502122518 72 0.0 0.0 0.00 0.00 0.00 56 1017.5
20260502121547 73 0.0 0.0 0.00 0.00 0.00 55 1017.6
20260502120536 73 0.0 0.0 0.00 0.00 0.00 55 1017.6
20260502115518 73 0.0 0.0 0.00 0.00 0.00 55 1017.6
20260502114518 72 0.0 0.0 0.00 0.00 0.00 55 1017.7
20260502113538 72 0.0 0.0 0.00 0.00 0.00 56 1017.7
20260502112518 71 0.0 0.0 0.00 0.00 0.00 57 1017.9
20260502111549 71 0.0 0.0 0.00 0.00 0.00 58 1017.9
20260502110518 70 0.0 0.0 0.00 0.00 0.00 58 1017.9
20260502105518 71 0.0 0.0 0.00 0.00 0.00 57 1017.9
20260502104518 71 0.0 0.0 0.00 0.00 0.00 58 1018.1
20260502103518 72 0.0 0.0 0.00 0.00 0.00 56 1018.1
20260502102520 70 0.0 0.0 0.00 0.00 0.00 58 1018.0
20260502100518 70 0.0 0.0 0.00 0.00 0.00 58 1018.3
20260502090538 66 0.0 0.0 0.00 0.00 0.00 63 1018.4
20260502071518 57 0.0 0.0 0.00 0.00 0.00 59 1018.6
20260502070518 57 0.0 0.0 0.00 0.00 0.00 59 1018.5
20260502065518 57 0.0 0.0 0.00 0.00 0.00 58 1018.6
20260502064518 56 0.0 0.0 0.00 0.00 0.00 57 1018.5
20260502063518 56 0.0 0.0 0.00 0.00 0.00 58 1018.7
20260502062518 55 0.0 0.0 0.00 0.00 0.00 58 1018.7
20260502061518 55 0.0 0.0 0.00 0.00 0.00 57 1018.6
20260502060518 55 0.0 0.0 0.00 0.00 0.00 56 1018.5
20260502055518 55 0.0 0.0 0.00 0.00 0.00 56 1018.6
20260502054518 54 0.0 0.0 0.00 0.00 0.00 56 1018.6
20260502053519 53 0.0 0.0 0.00 0.00 0.00 59 1018.5
20260502052549 53 0.0 0.0 0.00 0.00 0.00 62 1018.2
20260502051538 53 0.0 0.0 0.00 0.00 0.00 62 1018.2
20260502050553 53 0.0 0.0 0.00 0.00 0.00 62 1018.1
20260502045518 53 0.0 0.0 0.00 0.00 0.00 59 1018.4
20260502044520 53 0.0 0.0 0.00 0.00 0.00 58 1018.4
20260502043531 52 0.0 0.0 0.00 0.00 0.00 58 1018.4
20260502042517 52 0.0 0.0 0.00 0.00 0.00 60 1018.3
20260502041518 51 0.0 0.0 0.00 0.00 0.00 63 1018.3
20260502040518 51 0.0 0.0 0.00 0.00 0.00 63 1018.3
20260502035538 52 0.0 0.0 0.00 0.00 0.00 62 1018.4
20260502034518 52 0.0 0.0 0.00 0.00 0.00 61 1018.5
20260502033518 53 0.0 0.0 0.00 0.00 0.00 60 1018.5
20260502032616 53 0.0 0.0 0.00 0.00 0.00 58 1018.6
20260502031518 53 0.0 0.0 0.00 0.00 0.00 57 1018.6
20260502030539 54 0.0 0.0 0.00 0.00 0.00 56 1018.8
20260502025519 54 0.0 0.0 0.00 0.00 0.00 56 1018.8
20260502024519 54 0.0 0.0 0.00 0.00 0.00 55 1018.8
20260502023519 53 0.0 0.0 0.00 0.00 0.00 56 1019.0
20260502022520 53 0.0 0.0 0.00 0.00 0.00 57 1018.9
20260502021520 53 0.0 0.0 0.00 0.00 0.00 57 1019.0
20260502020519 54 0.0 0.0 0.00 0.00 0.00 57 1019.0
20260502015519 54 0.0 0.0 0.00 0.00 0.00 55 1019.1
20260502014519 54 0.0 0.0 0.00 0.00 0.00 55 1019.2
20260502013520 55 0.0 0.0 0.00 0.00 0.00 54 1019.2
20260502012520 55 0.0 0.0 0.00 0.00 0.00 53 1019.3
20260502011546 55 0.0 0.0 0.00 0.00 0.00 53 1019.4
20260502010519 55 0.0 0.0 0.00 0.00 0.00 53 1019.4
20260502005520 55 0.0 0.0 0.00 0.00 0.00 53 1019.5